Location: Sternwarte ZA, Rosenfeld-Brittheim
(48.2889°N, 8.6789°E)
Time: 08:52:40
(UTC+02:00)

ISS - Pass Details

Date: 21 May 2021
Orbit: 417 x 422 km, 51.6° (Epoch: 18 June)

Event Time Altitude Azimuth Distance (km) Brightness Sun altitude
Rises 00:30:58 0° 289° (WNW) 2,370 0.5 -20.6°
Reaches altitude 10° 00:33:05 10° 293° (WNW) 1,506 -0.5 -20.7°
Maximum altitude 00:36:26 62° 15° (NNE) 477 -3.4 -20.8°
Enters shadow 00:36:55 54° 60° (ENE) 520 -3.3 -20.8°
